User: anonymous   Login
Location: Unspecified
(0.0000°N, 0.0000°E)
Time: 00:04:39
(UTC+00:00)
Language:

STARLINK-32633 - Orbit

View from above orbital plane
View from above orbital plane
View from above satellite
View from above satellite

Ground track
Ground track

The orbit is defined by the following mean orbital elements,

1 62306U          26145.42754875 +.00000000 +00000-0 +18338-3 0 00006
2 62306  53.1580 197.4215 0001104  82.1304 277.9822 15.30197356    01
Epoch (UTC): 25 May 2026 10:15:40
Eccentricity: 0.0001104
inclination: 53.1580°
perigee height: 474 km
apogee height: 476 km
right ascension of ascending node: 197.4215°
argument of perigee: 82.1304°
revolutions per day: 15.30197356
mean anomaly at epoch: 277.9822°

The dashed part of the orbit path shows where the satellite is in the earth's shadow,  

DLR